Stations météo

réclame
Mon MeteoGroup
Calvi, France (7754): Température de l'air & dewpoint: 19.01.2020 01:00:00 - 25.01.2020 01:00:00 (CET)Calvi, France (7754): Température de l'air 5cm: 19.01.2020 01:00:00 - 25.01.2020 01:00:00 (CET)Calvi, France (7754): Vitesse du vent & gusts: 19.01.2020 01:00:00 - 25.01.2020 01:00:00 (CET)Calvi, France (7754): Direction du vent: 19.01.2020 01:00:00 - 25.01.2020 01:00:00 (CET)Calvi, France (7754): reduced air pressure: 19.01.2020 01:00:00 - 25.01.2020 01:00:00 (CET)Calvi, France (7754): visibility: 19.01.2020 01:00:00 - 25.01.2020 01:00:00 (CET)Calvi, France (7754): Quantités de précipitations: 19.01.2020 01:00:00 - 25.01.2020 01:00:00 (CET)
Date & Time tt [°C] td [°C] tt 5cm [°C] ff [km/h] ff [knt] fx [km/h] fx [knt] dd ppp [hPa] vv [km] rr [mm]
25.01.2020 01:00:00 9,5 8,4 8,9 4 2 9 5 SW 1020,7 51 0,0
25.01.2020 00:00:00 9,7 8,5 9,0 6 3 11 6 SW 1020,5 60 0,0
24.01.2020 23:00:00 9,8 8,4 9,1 7 4 12 6 SSE 1020,5 41 1,3
24.01.2020 22:00:00 10,1 8,4 9,2 8 4 27 15 SSW 1021,3 5 3,6
24.01.2020 21:00:00 11,4 9,5 8,9 23 12 41 22 S 1021,9 3,1 1,4
24.01.2020 20:00:00 10,2 8,6 9,0 2 1 11 6 ESE 1020,3 13 0,0
24.01.2020 19:00:00 10,9 9,3 9,9 10 5 13 7 SSW 1020,2 13 0,4
24.01.2020 18:00:00 11,6 9,0 9,9 5 3 8 5 SW 1020,0 17 0,0
24.01.2020 17:00:00 13,4 9,3 12,8 4 2 8 4 N 1019,8 26 0,0
24.01.2020 16:00:00 14,0 9,6 14,4 3 1 12 7 E 1020,6 44 0,0
24.01.2020 15:00:00 14,3 10,9 14,7 8 5 14 7 N 1021,1 20 0,0
24.01.2020 14:00:00 14,8 10,4 15,8 9 5 15 8 NNW 1021,8 45 0,0
24.01.2020 13:00:00 14,8 9,8 15,4 8 4 16 8 NNW 1022,4 45 0,0
24.01.2020 12:00:00 15,2 8,4 16,5 10 5 15 8 N 1023,1 41 0,0
24.01.2020 11:00:00 14,5 7,3 14,6 0 0 6 4 N 1023,5 50 0,0
24.01.2020 10:00:00 12,1 8,8 8,6 0 0 14 8 N 1023,1 46 0,0
24.01.2020 09:00:00 8,5 6,5 5,8 9 5 13 7 S 1023,2 36 0,0
24.01.2020 08:00:00 6,6 4,4 5,2 6 4 15 8 SSW 1023,3 32 0,0
24.01.2020 07:00:00 7,0 4,3 5,3 9 5 12 7 S 1023,5 31 0,0
24.01.2020 06:00:00 6,7 3,8 5,5 5 3 14 8 SSE 1023,5 32 0,0
24.01.2020 05:00:00 8,5 5,8 6,4 11 6 14 7 SSW 1023,5 38 0,0
24.01.2020 04:00:00 7,2 5,0 6,3 6 3 13 7 S 1023,9 31 0,0
24.01.2020 03:00:00 8,7 5,8 8,1 11 6 15 8 S 1024,4 38 0,0
24.01.2020 02:00:00 8,8 6,2 8,0 13 7 15 8 S 1024,7 36 0,0
24.01.2020 01:00:00 9,0 6,1 6,7 8 4 14 7 S 1025,0 33 0,0
24.01.2020 00:00:00 7,4 5,4 5,8 6 4 9 5 S 1025,6 30 0,0
23.01.2020 23:00:00 7,1 5,1 6,2 7 4 10 5 S 1025,6 30 0,0
23.01.2020 22:00:00 8,7 5,6 6,8 6 4 12 6 S 1025,7 33 0,0
23.01.2020 21:00:00 7,9 5,2 6,9 6 3 11 6 S 1025,5 28 0,0
23.01.2020 20:00:00 9,6 6,7 8,3 5 3 10 5 S 1025,3 25 0,0
23.01.2020 19:00:00 10,3 7,0 9,1 6 3 14 8 S 1025,2 29 0,0
23.01.2020 18:00:00 13,2 8,3 12,0 10 5 13 7 SSW 1025,0 34 0,0
23.01.2020 17:00:00 13,6 8,2 13,0 7 4 9 5 SSW 1024,8 20 0,0
23.01.2020 16:00:00 15,9 7,6 17,5 6 4 10 6 N 1024,8 49 0,0
23.01.2020 15:00:00 16,5 7,2 19,0 5 3 12 6 N 1024,8 35 0,0
23.01.2020 14:00:00 16,1 7,3 17,8 7 4 15 8 NNW 1025,4 20 0,0
23.01.2020 13:00:00 15,9 8,4 18,3 9 5 16 9 NNW 1026,1 20 0,0
23.01.2020 12:00:00 15,9 8,4 19,1 9 5 16 9 N 1027,0 20 0,0
23.01.2020 11:00:00 15,4 7,9 15,2 2 1 4 2 NE 1027,3 48 0,0
23.01.2020 10:00:00 12,9 7,6 8,3 4 2 11 6 SSW 1027,2 31 0,0
23.01.2020 09:00:00 8,1 5,7 4,7 6 3 16 9 SSW 1027,0 15 0,0
23.01.2020 08:00:00 5,8 3,5 4,4 8 4 13 7 S 1026,4 34 0,0
23.01.2020 07:00:00 7,1 4,1 5,2 6 4 11 6 SSW 1026,3 41 0,0
23.01.2020 06:00:00 7,7 4,3 5,7 3 2 16 9 S 1026,1 38 0,0
23.01.2020 05:00:00 7,8 4,2 7,0 11 6 24 13 S 1025,6 50 0,0
23.01.2020 04:00:00 8,7 4,9 7,0 21 11 25 13 SSE 1025,0 51 0,0
23.01.2020 03:00:00 7,7 4,6 7,0 18 10 20 11 S 1025,1 49 0,0
23.01.2020 02:00:00 9,2 5,4 6,7 13 7 17 9 SSW 1024,8 48 0,0
23.01.2020 01:00:00 8,5 5,1 6,1 10 5 16 9 SSW 1026,2 48 0,0
23.01.2020 00:00:00 7,3 4,3 5,8 8 5 14 7 SSW 1026,6 42 0,0
22.01.2020 23:00:00 7,2 4,2 6,1 7 4 14 7 SSW 1026,4 46 0,0
22.01.2020 22:00:00 7,8 4,7 6,4 9 5 14 7 S 1026,2 49 0,0
22.01.2020 21:00:00 9,3 4,5 7,8 10 6 15 8 S 1025,8 49 0,0
22.01.2020 20:00:00 9,9 5,3 8,5 6 3 15 8 SSW 1026,1 52 0,0
22.01.2020 19:00:00 11,1 6,2 10,1 11 6 15 8 SSW 1026,1 50 0,0
22.01.2020 18:00:00 11,8 6,9 11,1 8 5 13 7 S 1026,2 45 0,0
22.01.2020 17:00:00 13,1 8,0 12,2 7 4 9 5 SSW 1026,3 39 0,0
22.01.2020 16:00:00 14,6 8,8 14,2 6 3 9 5 N 1026,6 58 0,0
22.01.2020 15:00:00 16,9 5,8 19,0 8 4 13 7 NNE 1027,0 52 0,0
22.01.2020 14:00:00 17,0 4,6 18,7 10 6 14 8 N 1027,5 20 0,0
22.01.2020 13:00:00 17,3 7,3 19,9 8 5 13 7 N 1028,2 56 0,0
22.01.2020 12:00:00 17,2 6,7 20,4 7 4 10 5 N 1029,1 19 0,0
22.01.2020 11:00:00 17,7 5,6 15,2 3 2 11 6 SW 1029,5 59 0,2
22.01.2020 10:00:00 14,5 6,3 9,8 6 3 9 5 S 1029,3 60 0,0
22.01.2020 09:00:00 9,2 5,6 5,8 5 3 12 7 S 1029,7 57 0,0
22.01.2020 08:00:00 6,8 3,4 5,6 6 3 13 7 S 1029,7 59 0,0
22.01.2020 07:00:00 6,7 2,9 5,6 5 3 10 6 S 1029,6 60 0,0
22.01.2020 06:00:00 6,9 3,3 5,5 6 4 14 8 SSW 1029,8 60 0,0
22.01.2020 05:00:00 7,9 3,4 5,8 8 4 18 10 SSW 1030,2 60 0,0
22.01.2020 04:00:00 9,1 3,3 5,6 13 7 19 10 SSW 1030,6 60 0,0
22.01.2020 03:00:00 7,2 2,7 6,1 10 6 19 10 S 1031,3 60 0,0
22.01.2020 02:00:00 7,9 3,4 6,8 9 5 19 10 S 1031,5 60 0,0
22.01.2020 01:00:00 7,9 4,1 6,3 12 7 17 9 SSW 1032,1 58 0,0
22.01.2020 00:00:00 7,3 3,9 6,1 9 5 16 9 S 1032,4 53 0,0
21.01.2020 23:00:00 7,1 4,1 6,1 7 4 14 8 S 1031,9 47 0,0
21.01.2020 22:00:00 7,5 4,1 6,5 10 5 16 9 SSE 1031,7 51 0,0
21.01.2020 21:00:00 7,9 4,5 6,9 8 4 12 6 SSW 1031,4 35 0,0
21.01.2020 20:00:00 8,8 5,2 7,5 10 5 14 8 S 1031,1 34 0,0
21.01.2020 19:00:00 8,6 5,9 7,7 11 6 14 7 S 1030,9 19 0,0
21.01.2020 18:00:00 9,6 6,3 8,8 9 5 14 8 S 1031,2 19 0,0
21.01.2020 17:00:00 12,0 6,9 10,6 6 3 7 4 SSW 1031,4 32 0,0
21.01.2020 16:00:00 13,6 6,5 14,0 4 2 9 5 NW 1031,5 41 0,0
21.01.2020 15:00:00 14,0 5,9 14,7 4 2 12 6 NNW 1031,8 43 0,0
21.01.2020 14:00:00 14,3 6,4 15,6 7 4 13 7 N 1032,0 20 0,0
21.01.2020 13:00:00 15,2 5,1 17,0 4 2 7 4 N 1032,2 45 0,0
21.01.2020 12:00:00 14,8 5,3 16,0 0 0 7 4 N 1032,4 20 0,0
21.01.2020 11:00:00 13,4 5,8 12,5 0 0 6 3 N 1033,1 43 0,0
21.01.2020 10:00:00 10,6 5,6 8,1 3 1 14 8 SW 1033,2 56 0,0
21.01.2020 09:00:00 7,9 4,1 6,3 9 5 16 9 SSW 1033,3 51 0,0
21.01.2020 08:00:00 7,3 3,2 5,7 11 6 19 10 S 1033,4 59 0,0
21.01.2020 07:00:00 7,4 3,6 6,4 13 7 16 9 S 1033,0 59 0,0
21.01.2020 06:00:00 9,3 3,7 7,3 9 5 14 8 SSW 1032,8 60 0,0
21.01.2020 05:00:00 8,9 3,5 7,7 6 4 15 8 SW 1033,0 60 0,0
21.01.2020 04:00:00 8,9 3,7 7,9 6 4 14 8 SW 1033,1 60 0,0
21.01.2020 03:00:00 10,4 3,4 8,7 3 2 16 9 SSW 1033,3 60 0,0
21.01.2020 02:00:00 9,8 3,3 8,8 10 6 23 12 SSE 1033,6 60 0,0
21.01.2020 01:00:00 8,9 3,7 7,7 11 6 15 8 SSW 1033,6 60 0,0
21.01.2020 00:00:00 9,6 3,6 8,6 6 3 18 10 S 1033,9 60 0,0
20.01.2020 23:00:00 11,0 3,3 9,6 6 3 56 30 NE 1033,1 60 0,0
20.01.2020 22:00:00 11,0 2,8 10,2 32 17 61 33 NE 1032,5 60 0,0
20.01.2020 21:00:00 10,9 3,2 10,1 26 14 74 40 ENE 1032,0 60 0,0
20.01.2020 20:00:00 11,1 2,9 10,5 48 26 78 42 NE 1031,4 60 0,0
20.01.2020 19:00:00 11,5 2,8 10,8 41 22 69 37 NE 1031,4 60 0,0
20.01.2020 18:00:00 11,8 2,0 10,5 41 22 76 41 ENE 1030,7 60 0,0
20.01.2020 17:00:00 11,0 2,6 10,6 40 22 72 39 ENE 1030,3 60 0,0
20.01.2020 16:00:00 11,1 2,1 10,7 43 23 75 41 NE 1030,4 55 0,0
20.01.2020 15:00:00 10,9 2,2 10,7 44 24 77 41 NE 1030,5 49 0,0
20.01.2020 14:00:00 10,9 2,5 10,8 48 26 79 43 NE 1029,9 56 0,0
20.01.2020 13:00:00 10,8 2,1 10,8 46 25 86 46 NE 1030,2 51 0,0
20.01.2020 12:00:00 10,8 2,4 10,6 45 24 83 45 NE 1030,0 44 0,0
20.01.2020 11:00:00 10,4 2,5 10,2 49 26 93 50 NE 1029,5 38 0,0
20.01.2020 10:00:00 10,4 3,0 9,5 47 25 84 46 NE 1028,9 37 0,0
20.01.2020 09:00:00 9,9 3,0 9,3 54 29 83 45 NE 1027,8 45 0,0
20.01.2020 08:00:00 10,0 2,3 9,1 44 24 71 38 NE 1027,7 59 0,0
20.01.2020 07:00:00 10,0 2,1 8,9 41 22 79 43 NE 1027,5 55 0,0
20.01.2020 06:00:00 9,9 2,3 9,1 47 25 75 40 NE 1027,1 49 0,0
20.01.2020 05:00:00 10,3 2,1 9,2 46 25 82 45 ENE 1026,8 60 0,0
20.01.2020 04:00:00 10,4 2,5 9,1 48 26 74 40 NE 1026,1 60 0,0
20.01.2020 03:00:00 10,2 3,5 9,4 43 23 74 40 NE 1026,0 45 0,0
20.01.2020 02:00:00 10,4 3,9 9,7 37 20 62 33 NE 1025,8 59 0,0
20.01.2020 01:00:00 10,6 4,3 9,8 35 19 67 36 NE 1025,7 60 0,0
20.01.2020 00:00:00 10,6 4,5 10,0 37 20 69 37 NE 1025,1 60 0,0
19.01.2020 23:00:00 11,0 4,4 9,8 37 20 64 35 NE 1024,0 60 0,0
19.01.2020 22:00:00 10,8 4,3 9,8 39 21 69 37 NE 1023,6 59 0,0
19.01.2020 21:00:00 10,9 3,9 9,9 31 17 64 35 NE 1023,6 60 0,0
19.01.2020 20:00:00 11,1 3,1 9,5 28 15 51 28 NE 1023,5 60 0,0
19.01.2020 19:00:00 11,3 3,1 9,8 28 15 48 26 NNE 1023,3 60 0,0
19.01.2020 18:00:00 11,1 2,9 10,2 27 14 44 24 NNE 1023,5 60 0,0
19.01.2020 17:00:00 11,4 2,9 10,7 23 12 43 23 NNE 1023,1 60 0,0
19.01.2020 16:00:00 11,6 3,4 11,3 23 13 42 23 NE 1022,3 60 0,0
19.01.2020 15:00:00 12,4 2,8 12,2 19 10 36 20 NE 1021,6 60 0,0
19.01.2020 14:00:00 12,4 3,6 13,2 8 4 20 11 NE 1021,4 60 0,0
19.01.2020 13:00:00 12,4 2,8 12,9 6 3 16 8 SSW 1021,4 60 0,0
19.01.2020 12:00:00 12,2 3,7 12,8 7 4 10 5 SSE 1021,8 57 0,0
19.01.2020 11:00:00 11,2 3,0 10,7 5 3 13 7 N 1022,5 60 0,2
19.01.2020 10:00:00 9,6 2,4 5,0 7 4 10 5 S 1022,4 30 0,0
19.01.2020 09:00:00 4,9 1,6 2,2 6 3 18 10 S 1022,3 59 0,0
19.01.2020 08:00:00 3,0 0,1 1,9 4 2 16 9 S 1022,3 10 0,0
19.01.2020 07:00:00 4,3 0,8 3,4 14 8 19 10 SW 1022,2 60 0,0
19.01.2020 06:00:00 5,0 0,7 1,9 12 6 17 9 SSW 1022,1 60 0,0
19.01.2020 05:00:00 4,6 0,4 2,3 11 6 17 9 S 1022,3 60 0,0
19.01.2020 04:00:00 3,6 0,1 1,2 10 6 15 8 SSW 1022,8 60 0,0
19.01.2020 03:00:00 2,6 -0,9 1,5 7 4 17 9 S 1023,1 60 0,0
19.01.2020 02:00:00 4,1 -0,1 2,0 14 8 18 10 SSW 1023,4 53 0,0
19.01.2020 01:00:00 2,7 -0,4 1,7 7 4 12 7 S 1023,4 60 0,0

tt = Température de l'air
td = dewpoint
tt 5cm = Température de l'air 5cm
ff = Vitesse du vent
fx = gusts
dd = Direction du vent
ppp = reduced air pressure
vv = visibility
rr = Quantités de précipitations

stations d'obs. à proximité